When you browse on this site, cookies collect data to enhance your experience and personalize the content and advertising you see.
Visit our Privacy Policy to learn more. By continuing to use the site, you agree to this use of cookies and data.
  • In Belgium
  • List of Countries
  • For 7 days
  • Water Temperature
  • Satellite Maps
  • Weather Map
  • Weather Widgets
  • user-avatar
    Login

    Hourly Weather Mostar

    Today, 17 June, Monday

    Time Temperature Precipitation Wind Pressure Humidity
    00:00 +21°C° 0 mm 2 mps 753 mmHg 76%
    01:00 +22°C° 0 mm 1 mps 753 mmHg 73%
    02:00 +21°C° 0 mm 2 mps 753 mmHg 74%
    03:00 +20°C° 0 mm 2 mps 753 mmHg 74%
    04:00 +20°C° 0 mm 2 mps 753 mmHg 74%
    05:00 +21°C° 0 mm 2 mps 753 mmHg 73%
    06:00 +23°C° 0 mm 2 mps 753 mmHg 71%
    07:00 +25°C° 0 mm 2 mps 754 mmHg 70%
    08:00 +27°C° 0 mm 2 mps 754 mmHg 66%
    09:00 +28°C° 0 mm 2 mps 754 mmHg 61%
    10:00 +30°C° 0 mm 1 mps 753 mmHg 57%
    11:00 +31°C° 0.1 mm 1 mps 753 mmHg 54%
    12:00 +32°C° 0.1 mm 2 mps 753 mmHg 51%
    13:00 +32°C° 0.1 mm 2 mps 753 mmHg 47%
    14:00 +32°C° 0.1 mm 2 mps 753 mmHg 50%
    15:00 +31°C° 0.1 mm 2 mps 753 mmHg 52%
    16:00 +31°C° 0.1 mm 2 mps 753 mmHg 55%
    17:00 +29°C° 0.2 mm 1 mps 753 mmHg 63%
    18:00 +27°C° 0.2 mm 1 mps 753 mmHg 72%
    19:00 +26°C° 0.2 mm 1 mps 753 mmHg 80%
    20:00 +25°C° 0.1 mm 1 mps 753 mmHg 81%
    21:00 +24°C° 0.1 mm 1 mps 753 mmHg 82%
    22:00 +24°C° 0.1 mm 1 mps 753 mmHg 83%
    23:00 +23°C° 0.1 mm 1 mps 753 mmHg 83%

    Tomorrow, 18 June, Tuesday

    Time Temperature Precipitation Wind Pressure Humidity
    00:00 +23°C° 0.1 mm 1 mps 753 mmHg 83%
    01:00 +23°C° 0.1 mm 1 mps 753 mmHg 83%
    02:00 +22°C° 0.5 mm 1 mps 753 mmHg 83%
    03:00 +22°C° 0.5 mm 1 mps 753 mmHg 84%
    04:00 +22°C° 0.5 mm 1 mps 753 mmHg 84%
    05:00 +23°C° 0.6 mm 1 mps 753 mmHg 83%
    06:00 +24°C° 0.6 mm 1 mps 754 mmHg 82%
    07:00 +24°C° 0.6 mm 1 mps 754 mmHg 80%
    08:00 +26°C° 0.4 mm 1 mps 754 mmHg 75%
    09:00 +25°C° 0.4 mm 0 mps 754 mmHg 70%
    10:00 +27°C° 0.4 mm 0 mps 754 mmHg 64%
    11:00 +29°C° 0.4 mm 1 mps 754 mmHg 62%
    12:00 +30°C° 0.4 mm 1 mps 754 mmHg 59%
    13:00 +30°C° 0.4 mm 1 mps 753 mmHg 57%
    14:00 +30°C° 0.5 mm 1 mps 753 mmHg 60%
    15:00 +29°C° 0.5 mm 1 mps 753 mmHg 62%
    16:00 +29°C° 0.5 mm 1 mps 753 mmHg 65%
    17:00 +28°C° 0.4 mm 1 mps 753 mmHg 70%
    18:00 +26°C° 0.4 mm 1 mps 753 mmHg 75%
    19:00 +23°C° 0.4 mm 0 mps 753 mmHg 80%
    20:00 +22°C° 0 mm 0 mps 753 mmHg 81%
    21:00 +24°C° 0 mm 1 mps 753 mmHg 82%
    22:00 +23°C° 0 mm 1 mps 753 mmHg 83%
    23:00 +22°C° 0 mm 1 mps 753 mmHg 83%

    Day after tomorrow, 19 June, Wednesday

    Time Temperature Precipitation Wind Pressure Humidity
    00:00 +22°C° 0 mm 1 mps 753 mmHg 83%
    01:00 +22°C° 0 mm 1 mps 753 mmHg 83%
    02:00 +21°C° 0 mm 1 mps 753 mmHg 83%
    03:00 +21°C° 0 mm 1 mps 753 mmHg 82%
    04:00 +21°C° 0 mm 1 mps 753 mmHg 82%
    05:00 +22°C° 0 mm 1 mps 753 mmHg 79%
    06:00 +24°C° 0 mm 1 mps 753 mmHg 75%
    07:00 +25°C° 0 mm 1 mps 753 mmHg 71%
    08:00 +27°C° 0 mm 1 mps 753 mmHg 67%
    09:00 +28°C° 0 mm 1 mps 753 mmHg 62%
    10:00 +30°C° 0 mm 1 mps 753 mmHg 58%
    11:00 +30°C° 0.1 mm 1 mps 752 mmHg 57%
    12:00 +30°C° 0.1 mm 2 mps 752 mmHg 57%
    13:00 +31°C° 0.1 mm 2 mps 752 mmHg 56%
    14:00 +30°C° 0.2 mm 2 mps 752 mmHg 58%
    15:00 +30°C° 0.2 mm 2 mps 752 mmHg 60%
    16:00 +30°C° 0.2 mm 2 mps 751 mmHg 62%
    17:00 +28°C° 0.1 mm 2 mps 752 mmHg 68%
    18:00 +27°C° 0.1 mm 1 mps 752 mmHg 74%
    19:00 +25°C° 0.1 mm 1 mps 752 mmHg 79%
    20:00 +24°C° 0 mm 1 mps 752 mmHg 81%
    21:00 +24°C° 0 mm 1 mps 752 mmHg 82%
    22:00 +23°C° 0 mm 1 mps 752 mmHg 84%
    23:00 +22°C° 0 mm 1 mps 752 mmHg 84%

    20 June, Thursday

    Time Temperature Precipitation Wind Pressure Humidity
    00:00 +22°C° 0 mm 1 mps 752 mmHg 85%
    01:00 +20°C° 0 mm 0 mps 752 mmHg 85%
    02:00 +21°C° 0 mm 1 mps 752 mmHg 86%
    03:00 +21°C° 0 mm 1 mps 752 mmHg 86%
    04:00 +21°C° 0 mm 1 mps 752 mmHg 86%
    05:00 +22°C° 0 mm 1 mps 752 mmHg 81%
    06:00 +22°C° 0 mm 0 mps 752 mmHg 77%
    07:00 +24°C° 0 mm 0 mps 752 mmHg 72%
    08:00 +25°C° 0.1 mm 0 mps 752 mmHg 68%
    09:00 +29°C° 0.1 mm 1 mps 752 mmHg 64%
    10:00 +30°C° 0.1 mm 1 mps 752 mmHg 60%
    11:00 +30°C° 0.2 mm 1 mps 752 mmHg 58%
    12:00 +31°C° 0.2 mm 2 mps 752 mmHg 56%
    13:00 +31°C° 0.2 mm 2 mps 752 mmHg 54%
    14:00 +31°C° 0.1 mm 2 mps 752 mmHg 55%
    15:00 +30°C° 0.1 mm 2 mps 752 mmHg 57%
    16:00 +30°C° 0.1 mm 2 mps 752 mmHg 59%
    17:00 +29°C° 0.1 mm 2 mps 752 mmHg 65%
    18:00 +27°C° 0.1 mm 1 mps 752 mmHg 72%
    19:00 +26°C° 0.1 mm 1 mps 752 mmHg 79%
    20:00 +25°C° 0 mm 1 mps 752 mmHg 80%
    21:00 +24°C° 0 mm 1 mps 753 mmHg 82%
    22:00 +23°C° 0 mm 1 mps 753 mmHg 84%
    23:00 +23°C° 0 mm 1 mps 753 mmHg 83%

    21 June, Friday

    Time Temperature Precipitation Wind Pressure Humidity
    00:00 +23°C° 0 mm 1 mps 753 mmHg 83%
    01:00 +23°C° 0 mm 1 mps 753 mmHg 83%
    02:00 +22°C° 0 mm 1 mps 753 mmHg 83%
    03:00 +22°C° 0 mm 1 mps 753 mmHg 83%
    04:00 +22°C° 0 mm 1 mps 753 mmHg 82%
    05:00 +23°C° 0 mm 1 mps 753 mmHg 78%
    06:00 +23°C° 0 mm 0 mps 753 mmHg 74%
    07:00 +24°C° 0 mm 0 mps 753 mmHg 70%
    08:00 +28°C° 0 mm 1 mps 753 mmHg 65%
    09:00 +29°C° 0 mm 1 mps 753 mmHg 61%
    10:00 +31°C° 0 mm 1 mps 753 mmHg 57%
    11:00 +31°C° 0.1 mm 1 mps 753 mmHg 55%
    12:00 +31°C° 0.1 mm 2 mps 753 mmHg 54%
    13:00 +32°C° 0.1 mm 2 mps 753 mmHg 52%
    14:00 +31°C° 0.1 mm 2 mps 753 mmHg 53%
    15:00 +31°C° 0.1 mm 2 mps 752 mmHg 53%
    16:00 +31°C° 0.1 mm 2 mps 752 mmHg 53%
    17:00 +29°C° 0 mm 2 mps 752 mmHg 60%
    18:00 +27°C° 0 mm 1 mps 752 mmHg 66%
    19:00 +26°C° 0 mm 1 mps 752 mmHg 73%
    20:00 +25°C° 0 mm 1 mps 753 mmHg 74%
    21:00 +24°C° 0 mm 1 mps 753 mmHg 74%
    22:00 +23°C° 0 mm 1 mps 753 mmHg 75%
    23:00 +23°C° 0 mm 1 mps 753 mmHg 76%

    22 June, Saturday

    Time Temperature Precipitation Wind Pressure Humidity
    00:00 +23°C° 0 mm 1 mps 753 mmHg 77%
    01:00 +22°C° 0 mm 1 mps 752 mmHg 78%
    02:00 +22°C° 0 mm 1 mps 752 mmHg 78%
    03:00 +22°C° 0 mm 1 mps 752 mmHg 79%
    04:00 +22°C° 0 mm 1 mps 753 mmHg 79%
    05:00 +23°C° 0 mm 1 mps 753 mmHg 75%
    06:00 +25°C° 0 mm 1 mps 753 mmHg 71%
    07:00 +27°C° 0 mm 1 mps 753 mmHg 67%
    08:00 +28°C° 0 mm 1 mps 753 mmHg 62%
    09:00 +30°C° 0 mm 1 mps 753 mmHg 57%
    10:00 +31°C° 0 mm 1 mps 753 mmHg 52%
    11:00 +32°C° 0 mm 1 mps 753 mmHg 51%
    12:00 +32°C° 0 mm 2 mps 753 mmHg 51%
    13:00 +32°C° 0 mm 2 mps 752 mmHg 50%
    14:00 +32°C° 0.1 mm 2 mps 752 mmHg 50%
    15:00 +31°C° 0.1 mm 2 mps 752 mmHg 51%
    16:00 +31°C° 0.1 mm 1 mps 752 mmHg 51%
    17:00 +29°C° 0 mm 1 mps 752 mmHg 57%
    18:00 +28°C° 0 mm 1 mps 752 mmHg 62%
    19:00 +27°C° 0 mm 1 mps 752 mmHg 68%
    20:00 +26°C° 0 mm 1 mps 752 mmHg 67%
    21:00 +25°C° 0 mm 1 mps 753 mmHg 67%
    22:00 +24°C° 0 mm 1 mps 753 mmHg 66%
    23:00 +24°C° 0 mm 1 mps 753 mmHg 68%
    Show more